Retour au catalogue

COSMOS 836

ActifMilitaireLEO
NORAD 8923·PAYLOAD·🇷🇺 Russia

Lancé Jun 29, 1976 depuis Plesetsk Cosmodrome

Loading…

Prochains Passages (prochaines 24 heures)

TLE

FraisSource: Space-Track

Époque: Sep 14, 2026, 12:12 UTC

1 08923U 76061A   26257.50881092  .00000108  00000-0  47622-4 0  9991
2 08923  74.0544 171.9572 0017237  24.3798 335.8166 14.34130204623019

Suivez COSMOS 836 en temps réel avec AllMySat

Download on the App Store